Location: Black Swamp Observatory
(41.3920°N, 84.1250°W)
Time: 18:37:34
(UTC-05:00)

BlueWalker 3 - Visible Passes

Search period start: 30 November 2022 00:00
Search period end: 10 December 2022 00:00
Orbit: 500 x 519 km, 53.2° (Epoch: 30 November)

Date Brightness Start Highest point End Pass type
(mag) Time Alt. Az. Time Alt. Az. Time Alt. Az.
30 Nov 4.0 17:55:50 10° WNW 17:58:39 18° NNW 18:01:27 10° NNE visible
30 Nov 4.7 19:36:14 10° NNW 19:36:35 11° NNW 19:36:35 11° NNW visible
01 Dec 4.0 17:37:33 10° WNW 17:40:19 18° NNW 17:43:04 10° NNE visible
01 Dec 4.4 19:17:53 10° NNW 19:18:55 13° NNW 19:18:55 13° NNW visible
02 Dec 4.2 18:59:31 10° NNW 19:01:16 15° N 19:01:16 15° N visible
03 Dec 4.0 18:41:09 10° NNW 18:43:32 15° N 18:43:38 15° N visible
04 Dec 3.9 18:22:45 10° NNW 18:25:11 16° N 18:26:02 15° NNE visible
05 Dec 3.9 18:04:21 10° NNW 18:06:50 16° N 18:08:29 13° NE visible
05 Dec 4.6 19:42:40 10° NW 19:43:20 14° NW 19:43:20 14° NW visible
06 Dec 3.9 17:45:57 10° NNW 17:48:28 16° N 17:50:58 10° NE visible
06 Dec 3.9 19:24:15 10° NW 19:25:51 22° NNW 19:25:51 22° NNW visible
07 Dec 3.0 19:05:49 10° NW 19:08:29 34° N 19:08:29 34° N visible
08 Dec 2.2 18:47:23 10° NW 18:51:10 46° NNE 18:51:15 46° NE visible
09 Dec 2.2 18:28:57 10° NW 18:32:45 48° NNE 18:34:12 31° E visible
09 Dec 4.9 20:08:02 10° WNW 20:09:04 15° W 20:09:04 15° W visible
